SCP
0 0 0 0 0 0 0 0 0 0 0 0 0 0 0 0 0 0 0 0 0 0 0 0 0 0 0 0 0 0 0 0 0 0 0 0 0 0 0 0 0 0 0
0 0 0 0 0 0 0 0 0 0 0 0 0 0 0 0 0 0 0 0 0 0 0 0 0 0 0 0 0 0 0 0 0 0 0 0 0 0 0 0 0 0 0
0 0 0 0 0 0 0 0 0 0 0 0 0 0 0 0 0 0 0 0 0 0 0 0 0 0 0 0 0 0 0 0 0 0 0 0 0 0 0 0 0 0 0
0 0 0 0 0 0 0 0 0 0 0 0 0 0 0 0 0 0 0 0 0 0 0 0 0 0 0 0 0 0 0 0 0 0 0 0 0 0 0 0 0 0 0
0 0 0 0 0 0 0 0 0 0 0 0 0 0 0 0 0 0 0 0 0 0 0 0 0 0 0 0 0 0 0 0 0 0 0 0 0 0 0 0 0 0 0
0 0 0 0 0 0 0 0 0 0 0 0 0 0 0 0 0 0 0 0 0 0 0 0 0 0 0 0 0 0 0 0 0 0 0 0 0 0 0 0 0 0 0
0 0 0 0 0 0 0 0 0 0 0 0 0 0 0 0 0 0 0 0 0 0 0 0 0 0 0 0 0 0 0 0 0 0 0 0 0 0 0 0 0 0 0
0 0 0 0 0 0 0 0 0 0 0 0 0 0 0 0 0 0 0 0 0 0 0 0 0 0 0 0 0 0 0 0 0 0 0 0 0 0 0 0 0 0 0
0 0 0 0 0 0 0 0 0 0 0 0 0 0 0 0 0 0 0 0 0 0 0 0 0 0 0 0 0 0 0 0 0 0 0 0 0 0 0 0 0 0 0
0 0 0 0 0 0 0 0 0 0 0 0 0 0 0 0 0 0 0 0 0 0 0 0 0 0 0 0 0 0 0 0 0 0 0 0 0 0 0 0 0 0 0
0 0 0 0 0 0 0 0 0 0 0 0 0 0 0 0 0 0 0 0 0 0 0 0 0 0 0 0 0 0 0 0 0 0 0 0 0 0 0 0 0 0 0
0 0 0 0 0 0 0 0 0 0 0 0 0 0 0 0 0 0 0 0 0 0 0 0 0 0 0 0 0 0 0 0 0 0 0 0 0 0 0 0 0 0 0
0 0 0 0 0 0 0 0 0 0 0 0 0 0 0 0 0 0 0 0 0 0 0 0 0 0 0 0 0 0 0 0 0 0 0 0 0 0 0 0 0 0 0
0 0 0 0 0 0 0 0 0 0 0 0 0 0 0 0 0 0 0 0 0 0 0 0 0 0 0 0 0 0 0 0 0 0 0 0 0 0 0 0 0 0 0
0 0 0 0 0 0 0 0 0 0 0 0 0 0 0 0 0 0 0 0 0 0 0 0 0 0 0 0 0 0 0 0 0 0 0 0 0 0 0 0 0 0 0
0 0 0 0 0 0 0 0 0 0 0 0 0 0 0 0 0 0 0 0 0 0 0 0 0 0 0 0 0 0 0 0 0 0 0 0 0 0 0 0 0 0 0
0 0 0 0 0 0 0 0 0 0 0 0 0 0 0 0 0 0 0 0 0 0 0 0 0 0 0 0 0 0 0 0 0 0 0 0 0 0 0 0 0 0 0
0 0 0 0 0 0 0 0 0 0 0 0 0 0 0 0 0 0 0 0 0 0 0 0 0 0 0 0 0 0 0 0 0 0 0 0 0 0 0 0 0 0 0
0 0 0 0 0 0 0 0 0 0 0 0 0 0 0 0 0 0 0 0 0 0 0 0 0 0 0 0 0 0 0 0 0 0 0 0 0 0 0 0 0 0 0
0 0 0 0 0 0 0 0 0 0 0 0 0 0 0 0 0 0 0 0 0 0 0 0 0 0 0 0 0 0 0 0 0 0 0 0 0 0 0 0 0 0 0
0 0 0 0 0 0 0 0 0 0 0 0 0 0 0 0 0 0 0 0 0 0 0 0 0 0 0 0 0 0 0 0 0 0 0 0 0 0 0 0 0 0 0
0 0 0 0 0 0 0 0 0 0 0 0 0 0 0 0 0 0 0 0 0 0 0 0 0 0 0 0 0 0 0 0 0 0 0 0 0 0 0 0 0 0 0
0 0 0 0 0 0 0 0 0 0 0 0 0 0 0 0 0 0 0 0 0 0 0 0 0 0 0 0 0 0 0 0 0 0 0 0 0 0 0 0 0 0 0
0 0 0 0 0 0 0 0 0 0 0 0 0 0 0 0 0 0 0 0 0 0 0 0 0 0 0 0 0 0 0 0 0 0 0 0 0 0 0 0 0 0 0
0 0 0 0 0 0 0 0 0 0 0 0 0 0 0 0 0 0 0 0 0 0 0 0 0 0 0 0 0 0 0 0 0 0 0 0 0 0 0 0 0 0 0
0 0 0 0 0 0 0 0 0 0 0 0 0 0 0 0 0 0 0 0 0 0 0 0 0 0 0 0 0 0 0 0 0 0 0 0 0 0 0 0 0 0 0
Wind_Speed
1 1 1 1 1 1 1 2 2 2 2 1 1 1 1 1 1 1 1 4 5 7 8 8 8 8 8 8 8 8 8 8 7 7 7 7 7 7 7 7 7 7 6
1 1 1 1 1 1 1 1 1 1 1 1 1 1 0 0 0 1 1 2 4 5 6 7 7 7 8 8 8 8 8 8 7 7 7 8 8 8 8 8 8 7 7
2 1 1 1 1 1 2 2 2 1 1 2 2 1 1 0 0 0 1 1 1 3 4 5 5 6 6 7 7 8 7 7 7 6 7 7 7 8 9 9 9 8 7
2 2 1 0 1 1 2 2 2 2 1 1 1 1 1 1 1 0 0 0 1 1 2 3 3 4 5 6 7 7 6 6 6 6 6 7 7 6 6 7 7 7 7
2 2 1 1 1 1 1 1 2 2 2 2 1 2 1 1 1 1 1 0 0 1 1 0 2 2 4 5 5 6 6 6 6 7 7 7 7 6 6 6 6 6 5
1 2 1 1 2 1 1 2 2 2 2 2 2 3 2 2 2 2 2 1 1 0 0 0 1 1 2 3 4 5 5 6 6 6 7 7 7 7 6 5 5 5 5
1 2 2 1 1 1 2 2 2 2 2 2 2 2 3 3 3 3 2 2 2 2 2 2 1 1 2 3 2 1 1 2 3 5 5 6 6 7 7 7 6 6 5
1 1 2 1 1 1 1 2 3 2 1 2 2 2 1 2 3 3 3 2 2 2 2 2 2 2 1 1 2 3 2 1 0 2 2 3 4 4 4 5 6 6 5
1 1 2 2 2 2 2 2 2 3 2 1 1 2 2 2 0 2 3 3 3 3 2 2 3 2 2 1 2 3 4 4 2 1 1 1 2 3 4 4 4 5 5
1 1 1 2 2 1 1 1 2 1 2 2 1 1 1 2 2 1 1 2 3 3 3 2 2 2 2 2 3 5 5 6 5 3 2 2 1 2 4 5 5 4 5
1 1 1 1 1 1 1 1 1 1 2 2 1 1 1 1 1 2 1 0 1 2 2 2 2 2 2 2 2 4 6 6 5 4 4 3 3 2 2 3 3 4 4
1 1 1 1 1 1 1 1 1 1 1 1 1 1 2 2 2 2 2 1 0 1 1 2 2 2 2 2 3 6 6 6 6 6 6 5 6 5 3 3 3 3 3
0 1 1 1 1 1 1 1 1 1 1 1 1 1 1 1 2 2 3 2 1 0 1 1 2 2 2 2 3 6 7 8 7 7 7 8 8 7 7 6 5 5 5
1 0 1 1 1 1 1 2 1 1 1 1 1 1 1 1 2 3 3 3 2 1 1 1 1 2 2 2 3 5 4 8 8 8 8 9 8 8 8 8 8 7 6
1 1 2 2 2 2 2 2 1 1 1 1 1 1 1 1 1 1 2 3 3 2 1 0 0 1 1 2 3 3 3 6 7 8 8 8 8 8 8 8 8 8 7
1 2 2 2 2 2 2 2 1 1 2 1 1 1 1 1 1 2 2 2 2 3 2 1 1 0 1 2 3 3 3 6 7 7 7 8 8 8 8 8 8 8 7
2 2 2 2 2 2 2 2 1 1 2 1 1 1 1 1 1 1 1 2 2 2 3 1 1 1 1 2 2 2 2 3 3 6 6 6 7 7 7 8 7 7 7
2 2 2 2 2 2 2 2 1 2 2 1 1 1 1 1 2 2 2 2 2 2 3 3 2 1 1 1 1 2 2 2 2 4 5 6 6 6 7 7 7 7 6
3 3 3 2 2 2 2 1 2 2 2 1 1 1 1 2 2 1 1 2 2 2 2 3 2 1 1 1 1 2 2 2 1 2 4 4 5 5 6 5 5 5 5
3 3 2 2 2 2 2 2 2 2 2 2 1 1 1 2 2 2 2 2 3 3 3 4 3 2 1 1 2 1 1 1 1 2 2 2 3 4 4 4 4 4 4
3 3 2 2 2 2 1 1 2 2 2 2 2 2 2 2 3 2 2 3 4 3 3 3 3 2 2 2 2 1 1 0 1 1 1 1 1 1 1 1 1 1 1
3 3 2 2 2 1 1 3 3 2 2 2 2 2 2 3 3 3 4 4 4 4 4 3 2 3 3 2 2 2 2 1 0 0 0 0 0 0 0 0 0 0 1
3 3 2 2 2 1 2 3 3 3 2 2 2 1 2 2 2 3 4 4 3 3 4 3 4 4 4 4 4 3 3 2 1 1 1 0 0 1 1 1 1 2 2
3 3 2 2 2 1 2 3 4 3 3 2 1 1 1 1 2 2 3 3 2 1 1 2 3 3 3 4 5 4 4 2 1 1 2 1 1 2 2 2 3 3 3
3 2 2 2 2 1 2 3 4 3 2 2 1 1 1 1 1 3 4 3 2 1 1 1 1 1 2 4 5 4 3 2 1 1 2 2 1 2 2 2 3 4 4
4 3 2 2 2 2 2 3 3 2 2 1 1 1 0 1 2 3 3 3 2 1 0 1 1 1 0 3 6 5 5 4 2 2 3 3 2 1 2 2 2 2 3
Wind_Direction
98 91 82 77 77 82 91 90 82 66 64 70 105 130 146 156 180 186 206 206 208 207 202 202 203 203 206 207 208 210 212 212 212 214 215 212 212 210 210 213 216 216 216
137 123 104 98 103 114 110 109 105 84 66 71 64 94 144 165 196 189 220 237 228 218 214 212 211 211 214 216 214 215 216 217 218 219 219 217 221 220 219 218 219 218 221
142 132 121 120 136 128 116 107 99 90 88 78 62 57 76 92 130 177 207 241 257 235 222 214 213 214 218 219 217 218 217 216 217 219 219 218 224 224 224 225 223 221 220
147 133 130 138 126 115 119 123 118 100 86 84 65 31 49 68 90 99 156 220 235 258 250 217 217 222 228 226 225 224 220 220 221 221 217 214 217 218 218 223 219 216 215
144 139 140 150 120 116 128 144 121 129 120 100 85 57 36 31 31 49 46 343 224 238 246 282 256 246 244 241 234 233 225 221 223 224 223 221 219 218 217 215 213 211 210
128 124 118 116 117 121 116 123 126 121 127 118 86 63 42 33 38 38 28 29 41 66 41 10 338 330 306 267 248 238 234 227 225 226 228 225 222 218 213 207 200 197 199
129 130 129 123 126 142 151 141 130 123 119 120 97 64 38 41 45 39 39 45 39 37 48 43 30 10 356 7 21 359 281 239 224 222 222 222 223 218 210 204 197 198 198
138 134 138 141 154 153 150 151 147 139 162 155 130 119 58 25 31 32 41 52 40 38 43 41 44 41 28 2 25 26 3 20 207 216 216 217 213 205 202 200 202 202 195
79 105 148 157 164 160 172 179 169 162 169 184 167 156 159 183 48 23 33 40 37 36 32 32 36 29 27 19 357 21 27 33 34 11 223 207 187 186 189 191 195 196 194
42 113 139 144 145 148 168 198 167 166 160 180 185 181 168 151 150 135 26 30 34 35 27 27 22 21 29 21 36 49 50 47 45 45 57 76 106 176 191 196 197 199 195
14 47 116 116 122 131 144 154 149 153 157 166 170 157 121 96 127 150 172 52 36 21 22 17 12 17 26 23 25 54 62 55 51 53 58 64 67 72 131 167 179 187 181
10 24 92 95 99 101 118 137 137 142 145 149 160 167 160 160 167 159 162 158 105 15 19 23 20 15 25 22 44 65 67 61 53 54 59 63 63 63 70 90 109 125 139
351 344 78 91 86 86 102 114 112 121 154 152 169 190 183 174 155 150 145 148 141 86 28 32 21 14 33 36 43 61 62 61 55 55 62 65 65 65 65 68 74 80 87
208 170 120 101 92 87 88 95 99 109 104 119 121 119 144 159 150 153 152 148 136 107 53 15 13 21 34 46 46 52 56 61 60 61 65 68 68 68 69 69 70 72 75
165 130 124 110 94 87 88 94 83 77 94 94 94 100 106 124 141 148 151 158 153 157 184 264 12 10 54 71 56 58 59 65 66 64 63 66 67 67 67 69 70 71 73
121 121 114 110 94 79 79 84 88 81 90 70 84 94 87 107 123 133 152 158 158 152 152 163 185 63 70 91 80 69 65 71 69 68 66 65 66 66 66 66 67 69 70
124 125 120 110 98 79 74 91 95 91 92 69 67 95 87 104 128 130 137 140 132 134 142 133 103 80 94 86 68 73 74 64 65 67 70 69 67 67 65 63 64 66 69
108 112 111 104 96 79 72 92 99 91 98 83 64 81 79 107 104 125 136 139 140 139 146 147 128 109 104 112 88 79 73 75 76 69 68 68 68 67 64 63 63 63 63
115 112 114 115 110 98 88 87 94 89 83 82 87 100 96 106 103 111 126 130 132 124 122 136 131 114 103 109 101 89 76 46 78 78 74 68 68 68 65 63 65 66 62
129 127 125 121 116 107 94 91 94 89 76 66 70 86 103 118 132 137 133 132 124 118 118 123 123 120 119 122 125 121 95 50 46 48 49 56 64 67 63 65 73 74 71
137 132 117 103 98 104 93 106 111 109 96 73 59 64 98 112 125 135 135 142 137 131 131 133 134 134 142 149 163 167 151 106 40 34 40 32 42 45 45 49 65 75 99
135 128 128 131 120 93 96 122 118 120 115 99 73 46 52 74 89 96 108 130 142 148 155 153 162 172 188 187 162 162 154 150 196 78 147 16 69 24 355 357 307 233 203
150 141 139 145 130 116 121 125 119 121 114 97 85 57 50 55 71 89 93 94 102 121 151 164 174 191 190 191 173 170 178 181 195 160 159 210 242 253 255 240 239 231 238
159 163 166 162 151 164 144 140 128 116 104 86 81 88 85 55 68 103 109 95 88 96 168 180 185 202 203 188 186 183 177 164 155 160 174 203 232 244 252 247 245 235 236
166 170 165 162 165 196 167 144 126 116 103 80 54 65 105 122 112 116 117 113 85 18 60 109 172 208 195 180 168 154 158 166 199 200 186 203 225 245 248 246 244 238 242
171 164 162 173 177 189 187 158 143 131 125 113 43 28 46 161 162 146 140 144 155 254 330 27 30 28 147 175 176 182 182 182 187 210 189 195 202 210 252 240 245 242 237